| time (UTC) | temp F | wind direction | speed MPH | gust MPH | rain 1hr in | rain 24hr in | rain mn in | humidity % | barometer mb |
| 20260504185504 | 71 | 165 | 6.0 | 11.0 | 0.00 | 0.00 | 0.00 | 40 | 1011.8 |
| 20260504185009 | 71 | 246 | 4.0 | 15.0 | 0.00 | 0.00 | 0.00 | 39 | 1011.9 |
| 20260504184518 | 71 | 223 | 9.0 | 15.0 | 0.00 | 0.00 | 0.00 | 40 | 1012.0 |
| 20260504184009 | 71 | 222 | 6.0 | 11.0 | 0.00 | 0.00 | 0.00 | 40 | 1012.1 |
| 20260504183513 | 71 | 206 | 6.0 | 14.0 | 0.00 | 0.00 | 0.00 | 40 | 1012.1 |
| 20260504183014 | 71 | 203 | 7.0 | 14.0 | 0.00 | 0.00 | 0.00 | 39 | 1012.2 |
| 20260504182508 | 71 | 206 | 5.0 | 10.0 | 0.00 | 0.00 | 0.00 | 41 | 1012.3 |
| 20260504182011 | 70 | 315 | 4.0 | 14.0 | 0.00 | 0.00 | 0.00 | 39 | 1012.3 |
| 20260504181522 | 70 | 289 | 6.0 | 14.0 | 0.00 | 0.00 | 0.00 | 39 | 1012.3 |
| 20260504181010 | 70 | 232 | 6.0 | 12.0 | 0.00 | 0.00 | 0.00 | 40 | 1012.4 |
| 20260504180508 | 70 | 224 | 6.0 | 12.0 | 0.00 | 0.00 | 0.00 | 38 | 1012.4 |
| 20260504180011 | 70 | 248 | 4.0 | 12.0 | 0.00 | 0.00 | 0.00 | 38 | 1012.5 |
| 20260504175502 | 70 | 242 | 6.0 | 12.0 | 0.00 | 0.00 | 0.00 | 38 | 1012.3 |
| 20260504175006 | 70 | 230 | 7.0 | 11.0 | 0.00 | 0.00 | 0.00 | 40 | 1012.4 |
| 20260504174518 | 69 | 254 | 4.0 | 12.0 | 0.00 | 0.00 | 0.00 | 36 | 1012.5 |
| 20260504174007 | 69 | 231 | 6.0 | 15.0 | 0.00 | 0.00 | 0.00 | 41 | 1012.6 |
| 20260504173508 | 69 | 202 | 9.0 | 15.0 | 0.00 | 0.00 | 0.00 | 39 | 1012.7 |
| 20260504173029 | 69 | 215 | 4.0 | 15.0 | 0.00 | 0.00 | 0.00 | 41 | 1012.6 |
| 20260504172510 | 69 | 209 | 7.0 | 14.0 | 0.00 | 0.00 | 0.00 | 39 | 1012.6 |
| 20260504172015 | 69 | 188 | 9.0 | 12.0 | 0.00 | 0.00 | 0.00 | 42 | 1012.9 |
| 20260504171530 | 69 | 248 | 4.0 | 20.0 | 0.00 | 0.00 | 0.00 | 39 | 1013.0 |
| 20260504171012 | 68 | 238 | 4.0 | 20.0 | 0.00 | 0.00 | 0.00 | 41 | 1013.0 |
| 20260504170506 | 68 | 223 | 6.0 | 12.0 | 0.00 | 0.00 | 0.00 | 43 | 1012.9 |
| 20260504151003 | 65 | 225 | 4.0 | 10.0 | 0.00 | 0.00 | 0.00 | 48 | 1014.3 |
| 20260504150504 | 64 | 196 | 6.0 | 10.0 | 0.00 | 0.00 | 0.00 | 44 | 1014.3 |
| 20260504141004 | 60 | 193 | 5.0 | 11.0 | 0.00 | 0.00 | 0.00 | 47 | 1014.4 |
| 20260504140504 | 60 | 281 | 5.0 | 10.0 | 0.00 | 0.00 | 0.00 | 47 | 1014.3 |
| 20260504130508 | 54 | 228 | 2.0 | 8.0 | 0.00 | 0.00 | 0.00 | 63 | 1014.6 |
| 20260504110507 | 44 | 205 | 1.0 | 3.0 | 0.00 | 0.00 | 0.00 | 70 | 1015.1 |
| 20260504100503 | 45 | 196 | 2.0 | 6.0 | 0.00 | 0.00 | 0.00 | 65 | 1015.0 |
| 20260504081516 | 38 | 155 | 1.0 | 2.0 | 0.00 | 0.00 | 0.00 | 79 | 1015.3 |
| 20260504081008 | 38 | 145 | 1.0 | 2.0 | 0.00 | 0.00 | 0.00 | 78 | 1015.4 |
| 20260504080503 | 38 | 132 | 0.0 | 0.0 | 0.00 | 0.00 | 0.00 | 79 | 1015.3 |
| 20260504050505 | 39 | 133 | 0.0 | 0.0 | 0.00 | 0.00 | 0.00 | 76 | 1015.8 |
| 20260504050018 | 40 | 133 | 0.0 | 0.0 | 0.00 | 0.00 | 0.00 | 75 | 1015.8 |
| 20260504045511 | 40 | 182 | 0.0 | 0.0 | 0.00 | 0.00 | 0.00 | 74 | 1015.8 |
| 20260504045003 | 40 | 107 | 0.0 | 0.0 | 0.00 | 0.00 | 0.00 | 75 | 1015.7 |
| 20260504044507 | 40 | 107 | 0.0 | 0.0 | 0.00 | 0.00 | 0.00 | 74 | 1015.7 |
| 20260504044003 | 40 | 107 | 0.0 | 0.0 | 0.00 | 0.00 | 0.00 | 74 | 1015.6 |
| 20260504043505 | 40 | 107 | 0.0 | 0.0 | 0.00 | 0.00 | 0.00 | 73 | 1015.6 |
| 20260504043008 | 40 | 107 | 0.0 | 0.0 | 0.00 | 0.00 | 0.00 | 74 | 1015.5 |
| 20260504042504 | 40 | 107 | 0.0 | 0.0 | 0.00 | 0.00 | 0.00 | 71 | 1015.5 |
| 20260504042008 | 40 | 107 | 0.0 | 0.0 | 0.00 | 0.00 | 0.00 | 70 | 1015.5 |
| 20260504041509 | 41 | 107 | 0.0 | 0.0 | 0.00 | 0.00 | 0.00 | 70 | 1015.5 |
| 20260504041003 | 41 | 107 | 0.0 | 0.0 | 0.00 | 0.00 | 0.00 | 70 | 1015.5 |
| 20260504040507 | 41 | 107 | 0.0 | 2.0 | 0.00 | 0.00 | 0.00 | 69 | 1015.4 |
| 20260504040024 | 41 | 107 | 0.0 | 2.0 | 0.00 | 0.00 | 0.00 | 70 | 1015.4 |
| 20260504035505 | 41 | 107 | 0.0 | 2.0 | 0.00 | 0.00 | 0.00 | 72 | 1015.3 |
| 20260504035003 | 41 | 121 | 0.0 | 1.0 | 0.00 | 0.00 | 0.00 | 71 | 1015.4 |
| 20260504034508 | 42 | 196 | 0.0 | 0.0 | 0.00 | 0.00 | 0.00 | 66 | 1015.5 |
| 20260504034007 | 42 | 196 | 0.0 | 0.0 | 0.00 | 0.00 | 0.00 | 66 | 1015.6 |
| 20260504033504 | 42 | 196 | 0.0 | 0.0 | 0.00 | 0.00 | 0.00 | 66 | 1015.7 |
| 20260504033016 | 42 | 196 | 0.0 | 0.0 | 0.00 | 0.00 | 0.00 | 66 | 1015.6 |
| 20260504032508 | 43 | 196 | 0.0 | 0.0 | 0.00 | 0.00 | 0.00 | 64 | 1015.6 |
| 20260504032006 | 43 | 196 | 0.0 | 0.0 | 0.00 | 0.00 | 0.00 | 63 | 1015.5 |
| 20260504031518 | 43 | 196 | 0.0 | 0.0 | 0.00 | 0.00 | 0.00 | 62 | 1015.5 |
| 20260504031009 | 43 | 196 | 0.0 | 0.0 | 0.00 | 0.00 | 0.00 | 62 | 1015.4 |
| 20260504030509 | 44 | 196 | 0.0 | 0.0 | 0.00 | 0.00 | 0.00 | 62 | 1015.4 |
| 20260504030008 | 44 | 196 | 0.0 | 0.0 | 0.00 | 0.00 | 0.00 | 62 | 1015.4 |
| 20260504025505 | 44 | 196 | 0.0 | 0.0 | 0.00 | 0.00 | 0.00 | 61 | 1015.4 |
| 20260504025004 | 44 | 196 | 0.0 | 0.0 | 0.00 | 0.00 | 0.00 | 61 | 1015.4 |
| 20260504024503 | 45 | 196 | 0.0 | 0.0 | 0.00 | 0.00 | 0.00 | 62 | 1015.4 |
| 20260504024003 | 45 | 196 | 0.0 | 0.0 | 0.00 | 0.00 | 0.00 | 63 | 1015.3 |
| 20260504023506 | 45 | 196 | 0.0 | 1.0 | 0.00 | 0.00 | 0.00 | 62 | 1015.3 |
| 20260504023018 | 46 | 196 | 0.0 | 1.0 | 0.00 | 0.00 | 0.00 | 58 | 1015.4 |
| 20260504022506 | 46 | 196 | 0.0 | 0.0 | 0.00 | 0.00 | 0.00 | 57 | 1015.4 |
| 20260504022007 | 46 | 196 | 0.0 | 0.0 | 0.00 | 0.00 | 0.00 | 58 | 1015.2 |
| 20260504021522 | 47 | 196 | 0.0 | 2.0 | 0.00 | 0.00 | 0.00 | 58 | 1015.3 |
| 20260504021007 | 47 | 196 | 0.0 | 2.0 | 0.00 | 0.00 | 0.00 | 57 | 1015.2 |
| 20260504020503 | 47 | 196 | 0.0 | 1.0 | 0.00 | 0.00 | 0.00 | 54 | 1015.2 |
| 20260504020027 | 47 | 196 | 0.0 | 1.0 | 0.00 | 0.00 | 0.00 | 54 | 1015.2 |
| 20260504015503 | 48 | 196 | 0.0 | 1.0 | 0.00 | 0.00 | 0.00 | 53 | 1015.2 |
| 20260504015005 | 48 | 196 | 0.0 | 0.0 | 0.00 | 0.00 | 0.00 | 54 | 1015.2 |
| 20260504014512 | 49 | 196 | 0.0 | 0.0 | 0.00 | 0.00 | 0.00 | 54 | 1015.1 |
| 20260504014021 | 49 | 196 | 0.0 | 2.0 | 0.00 | 0.00 | 0.00 | 50 | 1015.2 |
| 20260504013506 | 49 | 196 | 0.0 | 2.0 | 0.00 | 0.00 | 0.00 | 50 | 1015.2 |
| 20260504013017 | 50 | 196 | 0.0 | 2.0 | 0.00 | 0.00 | 0.00 | 50 | 1015.1 |
| 20260504012507 | 50 | 196 | 0.0 | 1.0 | 0.00 | 0.00 | 0.00 | 49 | 1015.1 |
| 20260504012007 | 51 | 196 | 0.0 | 0.0 | 0.00 | 0.00 | 0.00 | 48 | 1014.9 |
| 20260504011508 | 51 | 196 | 0.0 | 1.0 | 0.00 | 0.00 | 0.00 | 46 | 1014.9 |
| 20260504011006 | 51 | 196 | 0.0 | 2.0 | 0.00 | 0.00 | 0.00 | 46 | 1014.8 |
| 20260504010507 | 52 | 196 | 0.0 | 2.0 | 0.00 | 0.00 | 0.00 | 47 | 1014.8 |
| 20260504010024 | 52 | 196 | 0.0 | 2.0 | 0.00 | 0.00 | 0.00 | 46 | 1014.9 |
| 20260504005504 | 52 | 202 | 1.0 | 2.0 | 0.00 | 0.00 | 0.00 | 42 | 1014.8 |
| 20260504005010 | 53 | 273 | 0.0 | 2.0 | 0.00 | 0.00 | 0.00 | 41 | 1014.8 |
| 20260504004516 | 53 | 273 | 0.0 | 0.0 | 0.00 | 0.00 | 0.00 | 42 | 1014.7 |
| 20260504004008 | 53 | 273 | 0.0 | 0.0 | 0.00 | 0.00 | 0.00 | 44 | 1014.6 |
| 20260504003508 | 54 | 273 | 0.0 | 2.0 | 0.00 | 0.00 | 0.00 | 44 | 1014.6 |
| 20260504003030 | 54 | 273 | 0.0 | 2.0 | 0.00 | 0.00 | 0.00 | 39 | 1014.6 |
| 20260504002509 | 54 | 273 | 0.0 | 2.0 | 0.00 | 0.00 | 0.00 | 39 | 1014.5 |
| 20260504002004 | 54 | 273 | 0.0 | 2.0 | 0.00 | 0.00 | 0.00 | 38 | 1014.5 |
| 20260504001521 | 54 | 273 | 0.0 | 2.0 | 0.00 | 0.00 | 0.00 | 38 | 1014.4 |
| 20260504001008 | 55 | 273 | 0.0 | 3.0 | 0.00 | 0.00 | 0.00 | 38 | 1014.4 |
| 20260504000506 | 55 | 273 | 0.0 | 3.0 | 0.00 | 0.00 | 0.00 | 38 | 1014.4 |
| 20260504000031 | 55 | 275 | 1.0 | 4.0 | 0.00 | 0.00 | 0.00 | 37 | 1014.4 |
| 20260503235509 | 55 | 269 | 1.0 | 4.0 | 0.00 | 0.00 | 0.00 | 37 | 1014.3 |
| 20260503235008 | 56 | 225 | 1.0 | 4.0 | 0.00 | 0.00 | 0.00 | 37 | 1014.3 |
| 20260503234511 | 56 | 265 | 0.0 | 4.0 | 0.00 | 0.00 | 0.00 | 37 | 1014.3 |
| 20260503234007 | 56 | 298 | 0.0 | 8.0 | 0.00 | 0.00 | 0.00 | 37 | 1014.3 |
| 20260503233510 | 56 | 302 | 2.0 | 10.0 | 0.00 | 0.00 | 0.00 | 36 | 1014.2 |
| 20260503233022 | 56 | 338 | 3.0 | 10.0 | 0.00 | 0.00 | 0.00 | 36 | 1014.1 |
| 20260503232507 | 57 | 352 | 2.0 | 9.0 | 0.00 | 0.00 | 0.00 | 36 | 1014.1 |
| 20260503232007 | 57 | 308 | 4.0 | 9.0 | 0.00 | 0.00 | 0.00 | 35 | 1014.0 |
| 20260503231524 | 57 | 258 | 3.0 | 8.0 | 0.00 | 0.00 | 0.00 | 36 | 1013.9 |
| 20260503231007 | 57 | 304 | 4.0 | 8.0 | 0.00 | 0.00 | 0.00 | 36 | 1013.9 |
| 20260503230507 | 57 | 322 | 3.0 | 9.0 | 0.00 | 0.00 | 0.00 | 35 | 1013.9 |
| 20260503230015 | 58 | 234 | 4.0 | 8.0 | 0.00 | 0.00 | 0.00 | 36 | 1014.0 |
| 20260503225509 | 58 | 315 | 2.0 | 9.0 | 0.00 | 0.00 | 0.00 | 36 | 1014.0 |
| 20260503225009 | 58 | 281 | 4.0 | 9.0 | 0.00 | 0.00 | 0.00 | 34 | 1014.0 |
| 20260503224521 | 58 | 342 | 2.0 | 10.0 | 0.00 | 0.00 | 0.00 | 34 | 1014.0 |
| 20260503224009 | 58 | 237 | 4.0 | 10.0 | 0.00 | 0.00 | 0.00 | 34 | 1014.0 |
| 20260503223507 | 59 | 259 | 4.0 | 12.0 | 0.00 | 0.00 | 0.00 | 36 | 1014.1 |
| 20260503223018 | 59 | 258 | 5.0 | 12.0 | 0.00 | 0.00 | 0.00 | 35 | 1014.0 |
| 20260503222509 | 59 | 297 | 4.0 | 13.0 | 0.00 | 0.00 | 0.00 | 35 | 1014.0 |
| 20260503222010 | 59 | 249 | 4.0 | 13.0 | 0.00 | 0.00 | 0.00 | 35 | 1014.0 |
| 20260503221514 | 59 | 316 | 7.0 | 12.0 | 0.00 | 0.00 | 0.00 | 35 | 1014.0 |
| 20260503221012 | 59 | 317 | 5.0 | 12.0 | 0.00 | 0.00 | 0.00 | 35 | 1013.9 |
| 20260503220508 | 59 | 302 | 6.0 | 12.0 | 0.00 | 0.00 | 0.00 | 34 | 1014.0 |
| 20260503220018 | 59 | 313 | 7.0 | 13.0 | 0.00 | 0.00 | 0.00 | 35 | 1014.1 |
| 20260503215505 | 59 | 342 | 8.0 | 21.0 | 0.00 | 0.00 | 0.00 | 35 | 1014.2 |
| 20260503215007 | 59 | 316 | 8.0 | 21.0 | 0.00 | 0.00 | 0.00 | 33 | 1014.2 |
| 20260503214524 | 59 | 18 | 4.0 | 11.0 | 0.00 | 0.00 | 0.00 | 35 | 1014.0 |
| 20260503214012 | 59 | 360 | 4.0 | 10.0 | 0.00 | 0.00 | 0.00 | 34 | 1014.0 |
| 20260503213509 | 59 | 325 | 4.0 | 11.0 | 0.00 | 0.00 | 0.00 | 35 | 1014.0 |
| 20260503213023 | 59 | 293 | 5.0 | 14.0 | 0.00 | 0.00 | 0.00 | 35 | 1014.0 |
| 20260503212508 | 59 | 260 | 5.0 | 14.0 | 0.00 | 0.00 | 0.00 | 35 | 1014.0 |
| 20260503212007 | 59 | 290 | 5.0 | 11.0 | 0.00 | 0.00 | 0.00 | 36 | 1014.0 |
| 20260503211522 | 58 | 251 | 6.0 | 17.0 | 0.00 | 0.00 | 0.00 | 34 | 1013.9 |
| 20260503211011 | 59 | 277 | 10.0 | 17.0 | 0.00 | 0.00 | 0.00 | 31 | 1014.0 |
| 20260503210511 | 59 | 294 | 10.0 | 17.0 | 0.00 | 0.00 | 0.00 | 33 | 1014.0 |
| 20260503210018 | 59 | 265 | 6.0 | 16.0 | 0.00 | 0.00 | 0.00 | 35 | 1013.9 |
| 20260503205507 | 59 | 317 | 6.0 | 16.0 | 0.00 | 0.00 | 0.00 | 33 | 1013.9 |
| 20260503205007 | 58 | 337 | 5.0 | 18.0 | 0.00 | 0.00 | 0.00 | 33 | 1013.9 |
| 20260503204503 | 58 | 301 | 8.0 | 18.0 | 0.00 | 0.00 | 0.00 | 34 | 1013.9 |
| 20260503204005 | 58 | 307 | 7.0 | 18.0 | 0.00 | 0.00 | 0.00 | 33 | 1014.0 |
| 20260503203504 | 59 | 319 | 9.0 | 18.0 | 0.00 | 0.00 | 0.00 | 35 | 1013.9 |
| 20260503203018 | 59 | 296 | 8.0 | 14.0 | 0.00 | 0.00 | 0.00 | 33 | 1013.9 |
| 20260503202507 | 59 | 266 | 4.0 | 16.0 | 0.00 | 0.00 | 0.00 | 35 | 1014.0 |
| 20260503202004 | 58 | 328 | 8.0 | 16.0 | 0.00 | 0.00 | 0.00 | 34 | 1014.0 |
| 20260503201511 | 58 | 352 | 8.0 | 17.0 | 0.00 | 0.00 | 0.00 | 33 | 1014.1 |
| 20260503201007 | 58 | 291 | 6.0 | 17.0 | 0.00 | 0.00 | 0.00 | 35 | 1014.2 |
| 20260503200509 | 58 | 279 | 6.0 | 13.0 | 0.00 | 0.00 | 0.00 | 33 | 1014.3 |
| 20260503200005 | 58 | 324 | 7.0 | 19.0 | 0.00 | 0.00 | 0.00 | 33 | 1014.3 |
| 20260503195503 | 59 | 320 | 11.0 | 19.0 | 0.00 | 0.00 | 0.00 | 33 | 1014.4 |
| 20260503195005 | 59 | 309 | 8.0 | 15.0 | 0.00 | 0.00 | 0.00 | 35 | 1014.5 |
| 20260503194503 | 58 | 215 | 3.0 | 16.0 | 0.00 | 0.00 | 0.00 | 42 | 1014.5 |
| 20260503194005 | 58 | 322 | 3.0 | 17.0 | 0.00 | 0.00 | 0.00 | 38 | 1014.7 |
| 20260503193506 | 57 | 284 | 7.0 | 17.0 | 0.00 | 0.00 | 0.00 | 36 | 1014.7 |
| 20260503193012 | 57 | 286 | 8.0 | 16.0 | 0.00 | 0.00 | 0.00 | 33 | 1014.8 |
| 20260503192503 | 57 | 293 | 2.0 | 15.0 | 0.00 | 0.00 | 0.00 | 36 | 1014.8 |
| 20260503192006 | 56 | 319 | 8.0 | 15.0 | 0.00 | 0.00 | 0.00 | 39 | 1014.9 |
| 20260503191519 | 56 | 287 | 5.0 | 15.0 | 0.00 | 0.00 | 0.00 | 40 | 1014.9 |
| 20260503191004 | 56 | 217 | 6.0 | 15.0 | 0.00 | 0.00 | 0.00 | 39 | 1015.0 |
| 20260503190507 | 57 | 278 | 6.0 | 20.0 | 0.00 | 0.00 | 0.00 | 36 | 1015.0 |
| 20260503190018 | 56 | 302 | 7.0 | 20.0 | 0.00 | 0.00 | 0.00 | 39 | 1015.1 |